Weather History for KCEY - February, 2013

Change the Weather History Date:

Tuesday, February 26, 2013

  Actual Average (KPAH) Record (KPAH)
Temperature  
Mean Temperature 42 °F 43 °F  
Max Temperature 48 °F 53 °F 73 °F (1996)
Min Temperature 37 °F 33 °F 10 °F (1967)
Degree Days  
Heating Degree Days 22 22  
Month to date heating degree days 678  
Since 1 July heating degree days 3251  
Cooling Degree Days 0 0  
Month to date cooling degree days 0  
Year to date cooling degree days 0  
Moisture  
Dew Point 40 °F    
Average Humidity 88    
Maximum Humidity 100    
Minimum Humidity 71    
Precipitation  
Precipitation 0.47 in 0.14 in 1.50 in (2000)
Month to date precipitation 3.65  
Year to date precipitation 7.33  
Snow  
Snow 0.00 in 0.00 in 1.30 in (1989)
Month to date snowfall 3.0  
Since 1 July snowfall 8.3  
Snow Depth -    
Sea Level Pressure  
Sea Level Pressure 29.49 in    
Wind  
Wind Speed 12 mph (SSW)    
Max Wind Speed 26 mph    
Max Gust Speed 34 mph    
Visibility 8 miles    
Events      
T = Trace of Precipitation, MM = Missing Value Source: NWS Daily Summary

Daily Weather History Graph

Daily Weather History Graph

Search for Another Location

Airport or City:

Trip Planner

Search our weather history database for the weather conditions in past years. The results will help you decide how hot, cold, wet, or windy it might be!

Date:

Astronomy

Feb. 26, 2013 Rise Set
Actual Time 6:27 AM CST 5:45 PM CST
Civil Twilight 6:01 AM CST 6:11 PM CST
Nautical Twilight 5:31 AM CST 6:41 PM CST
Astronomical Twilight 5:01 AM CST 7:11 PM CST
Moon 6:58 PM CST (2/26) 6:32 AM CST (2/26)
Length of Visible Light 12h 09m
Length of Day
11h 17m
Full, 99% of the Moon is Illuminated
Feb 26
Full
Mar 4
Last Quarter
Mar 11
New
Mar 19
First Quarter
Mar 27
Full

Hourly Weather History & Observations

Time (CST) Temp. Windchill Dew Point Humidity Pressure Visibility Wind Dir Wind Speed Gust Speed Precip Events Conditions
12:15 AM 48.2 °F - 46.4 °F 93% 29.44 in 5.0 mi East 13.8 mph 19.6 mph 0.02 in   Overcast
12:35 AM 48.2 °F - 46.4 °F 93% 29.43 in 5.0 mi East 12.7 mph - 0.06 in   Overcast
12:55 AM 48.2 °F - 46.4 °F 93% 29.41 in 5.0 mi East 10.4 mph - 0.10 in   Overcast
1:15 AM 48.2 °F - 46.4 °F 93% 29.43 in 3.0 mi ESE 9.2 mph - 0.07 in   Overcast
1:35 AM 48.2 °F - 46.4 °F 93% 29.44 in 2.5 mi SE 6.9 mph - 0.10 in   Overcast
1:55 AM 48.2 °F - 46.4 °F 93% 29.43 in 3.0 mi ESE 6.9 mph - 0.14 in   Overcast
2:15 AM 48.2 °F - 48.2 °F 100% 29.41 in 3.0 mi ESE 11.5 mph 17.3 mph N/A   Overcast
2:35 AM 48.2 °F - 48.2 °F 100% 29.39 in 10.0 mi ESE 10.4 mph 16.1 mph N/A   Overcast
2:55 AM 48.2 °F - 48.2 °F 100% 29.39 in 10.0 mi SE 9.2 mph 17.3 mph N/A   Overcast
3:15 AM 48.2 °F - 48.2 °F 100% 29.39 in 3.0 mi SSE 11.5 mph 17.3 mph N/A   Overcast
3:35 AM 48.2 °F - 48.2 °F 100% 29.39 in 5.0 mi SSE 11.5 mph 21.9 mph 0.02 in   Overcast
3:55 AM 48.2 °F - 48.2 °F 100% 29.38 in 4.0 mi SE 12.7 mph 21.9 mph 0.08 in   Overcast
4:15 AM 48.2 °F - 48.2 °F 100% 29.37 in 9.0 mi SSE 11.5 mph 19.6 mph 0.01 in   Overcast
4:35 AM 48.2 °F - 48.2 °F 100% 29.37 in 9.0 mi SSE 10.4 mph 18.4 mph 0.02 in   Overcast
4:55 AM 48.2 °F - 48.2 °F 100% 29.36 in 5.0 mi SSE 8.1 mph 16.1 mph 0.03 in   Overcast
5:15 AM 48.2 °F - 48.2 °F 100% 29.36 in 10.0 mi SSE 10.4 mph 19.6 mph N/A   Overcast
5:55 AM 48.2 °F - 48.2 °F 100% 29.36 in 10.0 mi SSE 6.9 mph 19.6 mph N/A   Overcast
6:15 AM 48.2 °F - 46.4 °F 93% 29.37 in 10.0 mi South 8.1 mph - N/A   Overcast
6:35 AM 48.2 °F - 46.4 °F 93% 29.36 in 10.0 mi South 6.9 mph - N/A   Overcast
6:55 AM 48.2 °F - 46.4 °F 93% 29.37 in 10.0 mi South 5.8 mph - N/A   Overcast
7:15 AM 48.2 °F - 46.4 °F 93% 29.38 in 2.5 mi SW 8.1 mph - 0.03 in   Overcast
7:35 AM 46.4 °F 40.7 °F 44.6 °F 93% 29.39 in 3.0 mi SW 12.7 mph 20.7 mph 0.09 in   Mostly Cloudy
7:55 AM 46.4 °F 42.9 °F 44.6 °F 93% 29.39 in 10.0 mi SW 6.9 mph 16.1 mph 0.09 in   Mostly Cloudy
8:15 AM 46.4 °F 41.5 °F 42.8 °F 87% 29.40 in 10.0 mi SW 10.4 mph - N/A   Overcast
8:35 AM 46.4 °F 42.9 °F 42.8 °F 87% 29.40 in 10.0 mi SW 6.9 mph - N/A   Overcast
8:55 AM 48.2 °F - 42.8 °F 82% 29.40 in 10.0 mi SW 6.9 mph - N/A   Overcast
9:15 AM 48.2 °F - 44.6 °F 87% 29.40 in 10.0 mi SW 10.4 mph 16.1 mph N/A   Overcast
9:35 AM 48.2 °F - 41.0 °F 76% 29.40 in 10.0 mi SW 17.3 mph 31.1 mph N/A   Overcast
9:55 AM 48.2 °F - 41.0 °F 76% 29.41 in 10.0 mi SW 13.8 mph 19.6 mph N/A   Overcast
10:15 AM 48.2 °F - 41.0 °F 76% 29.42 in 10.0 mi SW 12.7 mph 21.9 mph N/A   Overcast
10:55 AM 46.4 °F 40.7 °F 39.2 °F 76% 29.43 in 10.0 mi WSW 12.7 mph 20.7 mph N/A   Overcast
11:15 AM 46.4 °F 40.7 °F 39.2 °F 76% 29.44 in 10.0 mi SW 12.7 mph 24.2 mph N/A   Overcast
11:35 AM 46.4 °F 39.2 °F 39.2 °F 76% 29.44 in 10.0 mi SSW 18.4 mph 24.2 mph N/A   Overcast
11:55 AM 46.4 °F 39.0 °F 39.2 °F 76% 29.44 in 10.0 mi SW 19.6 mph 27.6 mph N/A   Overcast
12:15 PM 44.6 °F 36.4 °F 37.4 °F 76% 29.44 in 10.0 mi SW 20.7 mph 31.1 mph N/A   Overcast
12:55 PM 46.4 °F 37.7 °F 37.4 °F 71% 29.45 in 10.0 mi SW 26.5 mph 34.5 mph N/A   Overcast
1:15 PM 44.6 °F 39.2 °F 37.4 °F 76% 29.46 in 10.0 mi SW 10.4 mph 26.5 mph N/A   Overcast
1:35 PM 44.6 °F 37.2 °F 37.4 °F 76% 29.46 in 10.0 mi SW 17.3 mph 27.6 mph N/A   Overcast
1:55 PM 44.6 °F 38.8 °F 37.4 °F 76% 29.46 in 10.0 mi SW 11.5 mph 25.3 mph N/A   Overcast
2:15 PM 44.6 °F 37.4 °F 35.6 °F 71% 29.47 in 10.0 mi SW 16.1 mph 28.8 mph N/A   Overcast
2:35 PM 44.6 °F 36.9 °F 37.4 °F 76% 29.48 in 8.0 mi SW 18.4 mph 25.3 mph N/A   Overcast
2:55 PM 41.0 °F 33.5 °F 37.4 °F 87% 29.49 in 10.0 mi SW 13.8 mph 23.0 mph N/A   Overcast
3:15 PM 41.0 °F 33.1 °F 37.4 °F 87% 29.50 in 6.0 mi SW 15.0 mph 31.1 mph N/A   Overcast
3:35 PM 41.0 °F 32.2 °F 37.4 °F 87% 29.51 in 10.0 mi SW 18.4 mph 28.8 mph 0.01 in   Mostly Cloudy
3:55 PM 41.0 °F 34.3 °F 37.4 °F 87% 29.51 in 9.0 mi SW 11.5 mph 21.9 mph 0.01 in   Mostly Cloudy
4:15 PM 39.2 °F 30.8 °F 37.4 °F 93% 29.52 in 9.0 mi SW 15.0 mph 26.5 mph N/A   Overcast
4:35 PM 39.2 °F 30.8 °F 37.4 °F 93% 29.54 in 5.0 mi SW 15.0 mph 24.2 mph N/A   Overcast
4:55 PM 39.2 °F 30.5 °F 35.6 °F 87% 29.54 in 10.0 mi WSW 16.1 mph 24.2 mph N/A   Overcast
5:15 PM 39.2 °F 32.5 °F 35.6 °F 87% 29.55 in 10.0 mi SW 10.4 mph 17.3 mph N/A   Overcast
5:35 PM 39.2 °F 31.6 °F 35.6 °F 87% 29.55 in 10.0 mi SW 12.7 mph 20.7 mph N/A   Overcast
5:55 PM 39.2 °F 32.0 °F 35.6 °F 87% 29.56 in 10.0 mi SW 11.5 mph 20.7 mph N/A   Overcast
6:15 PM 39.2 °F 32.0 °F 35.6 °F 87% 29.58 in 7.0 mi SW 11.5 mph 16.1 mph N/A   Overcast
6:35 PM 39.2 °F 30.8 °F 35.6 °F 87% 29.58 in 9.0 mi WSW 15.0 mph 20.7 mph 0.02 in   Overcast
6:55 PM 39.2 °F 33.0 °F 35.6 °F 87% 29.59 in 10.0 mi SW 9.2 mph - 0.02 in   Overcast
7:15 PM 39.2 °F 32.0 °F 35.6 °F 87% 29.61 in 10.0 mi SW 11.5 mph 18.4 mph N/A   Overcast
7:35 PM 39.2 °F 31.2 °F 35.6 °F 87% 29.61 in 10.0 mi WSW 13.8 mph 20.7 mph N/A   Overcast
7:55 PM 39.2 °F 30.8 °F 35.6 °F 87% 29.62 in 10.0 mi WSW 15.0 mph 21.9 mph N/A   Overcast
8:15 PM 39.2 °F 29.6 °F 35.6 °F 87% 29.63 in 6.0 mi WSW 19.6 mph 25.3 mph N/A   Overcast
8:35 PM 37.4 °F 28.2 °F 35.6 °F 93% 29.65 in 6.0 mi West 16.1 mph - N/A   Overcast
8:55 PM 37.4 °F 28.2 °F 35.6 °F 93% 29.66 in 10.0 mi West 16.1 mph 21.9 mph N/A   Overcast
9:15 PM 37.4 °F 28.2 °F 35.6 °F 93% 29.67 in 10.0 mi WSW 16.1 mph - N/A   Overcast
9:55 PM 37.4 °F 28.2 °F 33.8 °F 87% 29.68 in 10.0 mi WSW 16.1 mph 21.9 mph N/A   Overcast
10:15 PM 37.4 °F 28.2 °F 33.8 °F 87% 29.69 in 9.0 mi WSW 16.1 mph 24.2 mph N/A   Overcast
10:35 PM 37.4 °F 27.5 °F 33.8 °F 87% 29.70 in 10.0 mi WSW 18.4 mph 25.3 mph N/A   Overcast
10:55 PM 37.4 °F 27.5 °F 33.8 °F 87% 29.70 in 5.0 mi WSW 18.4 mph 27.6 mph N/A   Overcast
11:15 PM 37.4 °F 28.5 °F 33.8 °F 87% 29.70 in 10.0 mi West 15.0 mph 19.6 mph N/A   Overcast
11:35 PM 37.4 °F 28.5 °F 33.8 °F 87% 29.70 in 10.0 mi West 15.0 mph 21.9 mph N/A   Overcast
11:55 PM 37.4 °F 28.2 °F 32.0 °F 81% 29.71 in 10.0 mi West 16.1 mph 21.9 mph N/A   Overcast